Time,TemperatureF,DewpointF,PressureIn,WindDirection,WindDirectionDegrees,WindSpeedMPH,WindSpeedGustMPH,Humidity,HourlyPrecipIn,Conditions,Clouds,dailyrainin,SoftwareType,DateUTC
2013-02-28 00:00:00,27.0,-99.9,-100.00,NNW,329,19.0,20.0,-999,-99.99,,,-99.99,,2013-02-28 07:00:00,
2013-02-28 00:52:00,27.0,-99.9,-100.00,NNW,329,19.0,20.0,-999,-99.99,,,-99.99,,2013-02-28 07:52:00,
2013-02-28 01:00:00,27.0,-99.9,-100.00,NNW,330,15.0,17.0,-999,-99.99,,,-99.99,,2013-02-28 08:00:00,
2013-02-28 01:53:00,27.0,-99.9,-100.00,NNW,330,15.0,17.0,-999,-99.99,,,-99.99,,2013-02-28 08:53:00,
2013-02-28 02:00:00,23.0,-99.9,-100.00,NW,315,9.0,11.0,-999,-99.99,,,-99.99,,2013-02-28 09:00:00,
2013-02-28 02:53:00,23.0,-99.9,-100.00,NW,315,9.0,11.0,-999,-99.99,,,-99.99,,2013-02-28 09:53:00,
2013-02-28 03:00:00,23.0,-99.9,-100.00,WNW,303,5.0,5.0,-999,-99.99,,,-99.99,,2013-02-28 10:00:00,
2013-02-28 03:52:00,23.0,-99.9,-100.00,WNW,303,5.0,5.0,-999,-99.99,,,-99.99,,2013-02-28 10:52:00,
2013-02-28 04:00:00,22.0,-99.9,-100.00,WNW,285,7.0,11.0,-999,-99.99,,,-99.99,,2013-02-28 11:00:00,
2013-02-28 04:53:00,22.0,-99.9,-100.00,WNW,285,7.0,11.0,-999,-99.99,,,-99.99,,2013-02-28 11:53:00,
2013-02-28 05:00:00,18.0,-99.9,-100.00,West,281,8.0,10.0,-999,-99.99,,,-99.99,,2013-02-28 12:00:00,
2013-02-28 05:53:00,18.0,-99.9,-100.00,West,281,8.0,10.0,-999,-99.99,,,-99.99,,2013-02-28 12:53:00,
2013-02-28 06:00:00,16.0,-99.9,-100.00,WNW,294,11.0,12.0,-999,-99.99,,,-99.99,,2013-02-28 13:00:00,
2013-02-28 06:52:00,16.0,-99.9,-100.00,WNW,294,11.0,12.0,-999,-99.99,,,-99.99,,2013-02-28 13:52:00,
2013-02-28 07:00:00,18.0,-99.9,-100.00,West,273,8.0,10.0,-999,-99.99,,,-99.99,,2013-02-28 14:00:00,
2013-02-28 07:52:00,18.0,-99.9,-100.00,West,273,8.0,10.0,-999,-99.99,,,-99.99,,2013-02-28 14:52:00,
2013-02-28 08:00:00,23.0,-99.9,-100.00,West,270,10.0,14.0,-999,-99.99,,,-99.99,,2013-02-28 15:00:00,
2013-02-28 08:53:00,23.0,-99.9,-100.00,West,270,10.0,14.0,-999,-99.99,,,-99.99,,2013-02-28 15:53:00,
2013-02-28 09:00:00,29.0,-99.9,-100.00,NW,315,12.0,14.0,-999,-99.99,,,-99.99,,2013-02-28 16:00:00,
2013-02-28 09:53:00,29.0,-99.9,-100.00,NW,315,12.0,14.0,-999,-99.99,,,-99.99,,2013-02-28 16:53:00,
2013-02-28 10:00:00,33.0,-99.9,-100.00,NNW,339,17.0,21.0,-999,-99.99,,,-99.99,,2013-02-28 17:00:00,
2013-02-28 10:53:00,33.0,-99.9,-100.00,NNW,339,17.0,21.0,-999,-99.99,,,-99.99,,2013-02-28 17:53:00,
2013-02-28 11:00:00,37.0,-99.9,-100.00,NW,321,17.0,21.0,-999,-99.99,,,-99.99,,2013-02-28 18:00:00,
2013-02-28 11:53:00,37.0,-99.9,-100.00,NW,321,17.0,21.0,-999,-99.99,,,-99.99,,2013-02-28 18:53:00,
2013-02-28 12:00:00,39.0,-99.9,-100.00,NNW,338,15.0,20.0,-999,-99.99,,,-99.99,,2013-02-28 19:00:00,
2013-02-28 12:52:00,39.0,-99.9,-100.00,NNW,338,15.0,20.0,-999,-99.99,,,-99.99,,2013-02-28 19:52:00,
2013-02-28 13:00:00,41.0,-99.9,-100.00,NW,322,12.0,15.0,-999,-99.99,,,-99.99,,2013-02-28 20:00:00,
2013-02-28 13:52:00,41.0,-99.9,-100.00,NW,322,12.0,15.0,-999,-99.99,,,-99.99,,2013-02-28 20:52:00,
2013-02-28 14:00:00,42.0,-99.9,-100.00,NW,315,13.0,14.0,-999,-99.99,,,-99.99,,2013-02-28 21:00:00,
2013-02-28 14:52:00,42.0,-99.9,-100.00,NW,315,13.0,14.0,-999,-99.99,,,-99.99,,2013-02-28 21:52:00,
2013-02-28 15:00:00,41.0,-99.9,-100.00,NNW,342,9.0,12.0,-999,-99.99,,,-99.99,,2013-02-28 22:00:00,
2013-02-28 15:52:00,41.0,-99.9,-100.00,NNW,342,9.0,12.0,-999,-99.99,,,-99.99,,2013-02-28 22:52:00,
2013-02-28 16:00:00,39.0,-99.9,-100.00,WNW,288,11.0,16.0,-999,-99.99,,,-99.99,,2013-02-28 23:00:00,
2013-02-28 16:53:00,39.0,-99.9,-100.00,WNW,288,11.0,16.0,-999,-99.99,,,-99.99,,2013-02-28 23:53:00,
2013-02-28 17:00:00,39.0,-99.9,-100.00,NW,315,5.0,6.0,-999,-99.99,,,-99.99,,2013-03-01 00:00:00,
2013-02-28 17:52:00,39.0,-99.9,-100.00,NW,315,5.0,6.0,-999,-99.99,,,-99.99,,2013-03-01 00:52:00,
2013-02-28 18:00:00,37.0,-99.9,-100.00,West,277,3.0,5.0,-999,-99.99,,,-99.99,,2013-03-01 01:00:00,
2013-02-28 18:52:00,37.0,-99.9,-100.00,West,277,3.0,5.0,-999,-99.99,,,-99.99,,2013-03-01 01:52:00,
2013-02-28 19:00:00,35.0,-99.9,-100.00,NNW,338,3.0,5.0,-999,-99.99,,,-99.99,,2013-03-01 02:00:00,
2013-02-28 19:52:00,35.0,-99.9,-100.00,NNW,338,3.0,5.0,-999,-99.99,,,-99.99,,2013-03-01 02:52:00,
2013-02-28 20:00:00,35.0,-99.9,-100.00,West,265,2.0,3.0,-999,-99.99,,,-99.99,,2013-03-01 03:00:00,
2013-02-28 20:52:00,35.0,-99.9,-100.00,West,265,2.0,3.0,-999,-99.99,,,-99.99,,2013-03-01 03:52:00,
2013-02-28 21:00:00,33.0,-99.9,-100.00,NW,307,2.0,3.0,-999,-99.99,,,-99.99,,2013-03-01 04:00:00,
2013-02-28 21:52:00,33.0,-99.9,-100.00,NW,307,2.0,3.0,-999,-99.99,,,-99.99,,2013-03-01 04:52:00,
2013-02-28 22:00:00,33.0,-99.9,-100.00,NW,323,11.0,13.0,-999,-99.99,,,-99.99,,2013-03-01 05:00:00,
2013-02-28 22:53:00,33.0,-99.9,-100.00,NW,323,11.0,13.0,-999,-99.99,,,-99.99,,2013-03-01 05:53:00,
2013-02-28 23:00:00,35.0,-99.9,-100.00,NNE,17,8.0,12.0,-999,-99.99,,,-99.99,,2013-03-01 06:00:00,
2013-02-28 23:53:00,35.0,-99.9,-100.00,NNE,17,8.0,12.0,-999,-99.99,,,-99.99,,2013-03-01 06:53:00,